Home   Weather   Syracuse   Past weeks
Flag for USA

Past Weather in Syracuse, New York, USA — Yesterday and Last 2 Weeks

Now
83 °F

Passing clouds.


Feels Like: 84 °F
Forecast: 83 / 60 °F
Wind: 10 mph from Southwest

Location: Syracuse Hancock International Airport

Current Time: May 19, 2019 at 12:40:57 pm

Latest Report: May 19, 2019 at 11:54 am


Visibility: 10 mi

Pressure: 29.85 "Hg

Humidity: 53%

Dew Point: 64 °F

Location of SyracuseLocation

Past Weather in Syracuse — Graph

°F

Syracuse Temperature Yesterday

Maximum temperature yesterday: 66 °F (at 2:54 pm)
Minimum temperature yesterday: 40 °F (at 5:54 am)
Average temperature yesterday: 55 °F

High & Low Weather Summary for the Past Weeks

 TemperatureHumidityPressure
High80 °F (May 19, 10:54 am)100% (May 12, 9:54 pm)30.36 "Hg (May 12, 9:54 pm)
Low39 °F (May 8, 5:54 am)30% (May 6, 4:54 pm)29.65 "Hg (May 17, 3:54 am)
Average53 °F75%29.96 "Hg
* Reported May 4 10:26 am — May 19 10:54 am, Syracuse. Weather by CustomWeather, © 2019

Note: Actual official high and low records may vary slightly from our data, if they occured in-between our weather recording intervals... More about our weather records

Advertising

Syracuse Weather History for the Previous 24 Hours

Scroll right to see more
 ConditionsComfort  
Time TempWeatherWind HumidityBarometerVisibility
10:54 am
Sun, May 19
80 °FScattered clouds.8 mph56%29.86 "Hg10 mi
9:54 am77 °FScattered clouds.6 mph64%29.88 "Hg10 mi
8:54 am72 °FScattered clouds.13 mph73%29.89 "Hg10 mi
7:54 am66 °FBroken clouds.9 mph84%29.89 "Hg10 mi
6:54 am56 °FBroken clouds.No wind93%29.91 "Hg10 mi
5:54 am55 °FBroken clouds.8 mph90%29.90 "Hg10 mi
5:14 am56 °FThundershowers. Partly cloudy.9 mph93%29.91 "Hg10 mi
4:54 am57 °FPartly cloudy.3 mph90%29.89 "Hg10 mi
4:38 am59 °FLight rain. Partly cloudy.5 mph84%29.89 "Hg10 mi
4:17 am57 °FThundershowers. Fog.10 mph90%29.89 "Hg6 mi
3:54 am55 °FThundershowers. Mostly cloudy.3 mph87%29.91 "Hg6 mi
3:41 am54 °FHeavy rain. Overcast.3 mph80%29.93 "Hg2 mi
2:54 am56 °FPartly cloudy.6 mph62%29.91 "Hg10 mi
1:54 am56 °FPassing clouds.3 mph58%29.94 "Hg10 mi
12:54 am57 °FPassing clouds.7 mph55%29.95 "Hg10 mi
11:54 pm
Sat, May 18
56 °FPassing clouds.7 mph58%29.96 "Hg10 mi
10:54 pm57 °FMostly cloudy.7 mph53%29.98 "Hg10 mi
9:54 pm59 °FOvercast.No wind41%30.01 "Hg10 mi
8:54 pm59 °FOvercast.3 mph36%30.01 "Hg10 mi
7:54 pm60 °FPartly sunny.3 mph35%30.00 "Hg10 mi
6:54 pm61 °FPartly sunny.8 mph36%30.00 "Hg10 mi
5:54 pm63 °FMostly cloudy.7 mph41%30.01 "Hg10 mi
4:54 pm66 °FPartly sunny.No wind34%30.00 "Hg10 mi
3:54 pm66 °FBroken clouds.6 mph34%30.01 "Hg10 mi
2:54 pm66 °FBroken clouds.No wind36%30.01 "Hg10 mi
1:54 pm64 °FScattered clouds.6 mph41%30.02 "Hg10 mi
12:54 pm63 °FPassing clouds.10 mph43%30.04 "Hg10 mi
Weather by CustomWeather, © 2019

See weather overview